DW0455 Weather Reports


time (UTC)temp
F
wind
direction
speed
knots
gust
knots
rain 1hr
in
rain 24hr
in
rain mn
in
humidity
%
barometer
mb
20260906224521 98 126 1.7 8.7 0.00 0.00 0.00 34 1009.1
20260906223020 99 70 6.1 9.6 0.00 0.00 0.00 33 1009.2
20260906221518 99 144 2.6 8.7 0.00 0.00 0.00 33 1009.4
20260906220017 99 161 4.3 7.8 0.00 0.00 0.00 34 1009.5
20260906214523 99 115 4.3 9.6 0.00 0.00 0.00 33 1009.6
20260906213014 99 67 4.3 8.7 0.00 0.00 0.00 36 1009.8
20260906211511 99 25 4.3 9.6 0.00 0.00 0.00 35 1010.0
20260906210018 99 23 3.5 11.3 0.00 0.00 0.00 34 1010.2
20260906204509 98 105 3.5 11.3 0.00 0.00 0.00 34 1010.4
20260906203006 98 139 2.6 6.1 0.00 0.00 0.00 36 1010.5
20260906201506 99 91 4.3 8.7 0.00 0.00 0.00 33 1010.7
20260906200004 99 105 4.3 9.6 0.00 0.00 0.00 35 1010.7
20260906194502 99 110 3.5 10.4 0.00 0.00 0.00 36 1010.9
20260906193101 98 126 4.3 10.4 0.00 0.00 0.00 36 1011.0
20260906191559 98 146 2.6 9.6 0.00 0.00 0.00 38 1011.3
20260906190057 97 9 2.6 13.0 0.00 0.00 0.00 37 1011.3
20260906184559 97 241 5.2 9.6 0.00 0.00 0.00 39 1011.6
20260906183055 96 179 2.6 8.7 0.00 0.00 0.00 39 1011.7
20260906181555 96 173 4.3 10.4 0.00 0.00 0.00 38 1012.0
20260906180053 96 127 3.5 8.7 0.00 0.00 0.00 39 1012.2
20260906174551 96 148 4.3 8.7 0.00 0.00 0.00 39 1012.3
20260906173052 95 115 3.5 8.7 0.00 0.00 0.00 43 1012.7
20260906171542 94 113 2.6 9.6 0.00 0.00 0.00 44 1012.8
20260906170042 94 106 2.6 9.6 0.00 0.00 0.00 45 1013.0
20260906164536 94 114 1.7 6.1 0.00 0.00 0.00 47 1013.1
20260906163033 93 40 2.6 7.8 0.00 0.00 0.00 47 1013.2
20260906161531 92 101 4.3 9.6 0.00 0.00 0.00 50 1013.2
20260906160035 91 98 2.6 7.0 0.00 0.00 0.00 54 1013.1
20260906154536 90 19 0.9 6.1 0.00 0.00 0.00 57 1013.3
20260906153019 88 119 2.6 6.1 0.00 0.00 0.00 59 1013.2
20260906151511 87 225 1.7 5.2 0.00 0.00 0.00 61 1013.0
20260906150017 86 128 0.9 6.1 0.00 0.00 0.00 63 1012.9
20260906144502 85 171 1.7 5.2 0.00 0.00 0.00 64 1012.8
20260906143113 85 120 0.9 3.5 0.00 0.00 0.00 65 1012.8
20260906141556 84 162 1.7 4.3 0.00 0.00 0.00 66 1012.9
20260906140050 83 162 1.7 4.3 0.00 0.00 0.00 67 1012.8
20260906134552 82 162 0.9 2.6 0.00 0.00 0.00 70 1012.7
20260906133047 81 162 0.9 4.3 0.00 0.00 0.00 72 1012.6
20260906131547 80 162 0.0 0.9 0.00 0.00 0.00 77 1012.8
20260906130041 76 162 0.0 0.0 0.00 0.00 0.00 83 1012.7
20260906124529 75 162 0.0 0.9 0.00 0.00 0.00 83 1012.6
20260906123032 75 161 0.0 0.0 0.00 0.00 0.00 81 1012.5
20260906121521 75 161 0.0 0.0 0.00 0.00 0.00 80 1012.3
20260906120018 75 161 0.0 0.0 0.00 0.00 0.00 80 1012.2
20260906114515 76 161 0.0 0.0 0.00 0.00 0.00 79 1012.1
20260906113012 76 161 0.0 0.0 0.00 0.00 0.00 78 1012.0
20260906111519 76 161 0.0 0.0 0.00 0.00 0.00 78 1011.6
20260906110013 77 161 0.0 0.9 0.00 0.00 0.00 77 1011.5
20260906104512 77 161 0.0 0.0 0.00 0.00 0.00 76 1011.4
20260906103004 78 161 0.0 0.0 0.00 0.00 0.00 75 1011.6
20260906101502 78 161 0.0 0.9 0.00 0.00 0.00 74 1011.4
20260906094558 79 161 0.0 0.0 0.00 0.00 0.00 73 1011.2
20260906093115 80 161 0.0 1.7 0.00 0.00 0.00 73 1011.0
20260906091557 80 161 0.0 2.6 0.00 0.00 0.00 73 1010.8
20260906090104 80 161 0.0 1.7 0.00 0.00 0.00 73 1010.8
20260906084554 80 161 0.0 2.6 0.00 0.00 0.00 72 1010.7
20260906083053 80 161 0.0 0.9 0.00 0.00 0.00 71 1010.6
20260906081554 80 161 0.0 1.7 0.00 0.00 0.00 71 1010.7
20260906080049 81 161 0.0 1.7 0.00 0.00 0.00 70 1011.0
20260906074547 81 161 0.0 0.0 0.00 0.00 0.00 70 1011.2
20260906073045 81 161 0.0 0.9 0.00 0.00 0.00 69 1011.2
20260906071554 82 161 0.0 2.6 0.00 0.00 0.00 68 1011.1
20260906070040 82 165 0.0 0.9 0.00 0.00 0.00 67 1011.1
20260906064541 83 165 0.0 0.9 0.00 0.00 0.00 65 1011.3
20260906063035 83 165 0.0 0.9 0.00 0.00 0.00 65 1011.3
20260906061533 84 165 0.0 1.7 0.00 0.00 0.00 64 1011.3
20260906060030 84 165 0.0 0.9 0.00 0.00 0.00 63 1011.4
20260906054528 85 165 0.0 3.5 0.00 0.00 0.00 62 1011.4
20260906053030 85 153 0.9 3.5 0.00 0.00 0.00 62 1011.4
20260906051531 85 165 0.9 4.3 0.00 0.00 0.00 61 1011.5
20260906050046 86 161 1.7 3.5 0.00 0.00 0.00 61 1011.5
20260906044521 86 167 0.9 3.5 0.00 0.00 0.00 60 1011.4
20260906043021 87 180 0.0 4.3 0.00 0.00 0.00 60 1011.2
20260906041520 87 139 0.9 2.6 0.00 0.00 0.00 59 1011.2
20260906040019 87 115 1.7 6.1 0.00 0.00 0.00 59 1011.2
20260906034527 88 109 2.6 6.1 0.00 0.00 0.00 58 1011.2
20260906033024 88 122 4.3 8.7 0.00 0.00 0.00 56 1011.4
20260906031520 88 137 2.6 7.0 0.00 0.00 0.00 55 1011.3
20260906030018 89 134 1.7 6.1 0.00 0.00 0.00 54 1011.2
20260906024515 89 125 1.7 6.1 0.00 0.00 0.00 52 1011.0
20260906023016 90 116 1.7 7.8 0.00 0.00 0.00 51 1010.7
20260906021513 91 92 4.3 10.4 0.00 0.00 0.00 49 1010.6
20260906020013 92 134 6.1 13.9 0.00 0.00 0.00 46 1010.3
20260906014513 93 113 0.9 3.5 0.00 0.00 0.00 42 1009.9
20260906013012 93 100 0.0 2.6 0.00 0.00 0.00 40 1009.6
20260906011511 94 100 0.0 4.3 0.00 0.00 0.00 39 1009.4
20260906010010 95 107 0.9 2.6 0.00 0.00 0.00 37 1009.3
20260906004510 95 107 0.0 3.5 0.00 0.00 0.00 36 1009.3
20260906003010 96 102 0.9 5.2 0.00 0.00 0.00 35 1009.3
20260906001508 96 148 0.9 5.2 0.00 0.00 0.00 35 1009.2
20260906000009 97 142 1.7 6.1 0.00 0.00 0.00 35 1009.1
20260905234507 97 125 2.6 7.0 0.00 0.00 0.00 34 1009.0
20260905233017 98 65 2.6 5.2 0.00 0.00 0.00 33 1009.1
20260905231505 98 99 1.7 7.8 0.00 0.00 0.00 34 1009.0
20260905230005 98 127 2.6 7.8 0.00 0.00 0.00 32 1009.0